Regional Weather Roundup
Issued by NWS

Home | Current Version | Previous Version | Text Only | Print | Product List | Glossary Off
Versions: 1 2 3 4 5 6 7 8 9 10 11 12 13 14 15 16 17 18 19 20 21 22 23 24 25 26 27 28

000
ASUS45 KTFX 181710
RWRMT
MONTANA REGIONAL WEATHER ROUNDUP
NATIONAL WEATHER SERVICE GREAT FALLS MT
1100 AM MDT FRI AUG 18 2017

NOTE: "FAIR" INDICATES FEW OR NO CLOUDS BELOW 12000 FEET WITH NO
SIGNIFICANT WEATHER AND/OR OBSTRUCTIONS TO VISIBILITY.

MTZ001>007-043-181800-
WEST OF THE DIVIDE

CITY           SKY/WX    TMP DP  RH WIND       PRES   REMARKS
KALISPELL      SUNNY     73  47  39 S8        30.05F
MISSOULA       SUNNY     66  38  35 S5        30.11F HAZE
BUTTE          SUNNY     70  34  26 NE6       30.21F
MULLAN PASS    SUNNY     62  35  36 VRB3      30.22S
ANACONDA         N/A     75  32  20 S8        30.15F
DEER LODGE       N/A     66  37  34 NE3       30.18F
EUREKA           N/A     79  39  24 MISG      30.00F
HAMILTON         N/A     68  41  37 CALM      30.12F
LIBBY            N/A     72  43  35 CALM      30.02F
PLAINS           N/A     71  45  39 CALM      30.07
$$

MTZ008-052>055-181800-
SOUTHWEST MONTANA

CITY           SKY/WX    TMP DP  RH WIND       PRES   REMARKS
BOZEMAN        SUNNY     71  40  32 CALM      30.15F HAZE
DILLON         SUNNY     71  43  36 SW9       30.18F
W YELLOWSTONE  SUNNY     68  30  24 S16       30.29F
ENNIS          SUNNY     72  39  30 VRB5      30.24F
THREE FORKS      N/A     70  42  36 NE2       30.12F
TWIN BRIDGES     N/A     67  38  34 CALM      30.15F
$$

MTZ009-010-012-014-046-048-049-054-181800-
EAST SLOPES AND CENTRAL MONTANA

CITY           SKY/WX    TMP DP  RH WIND       PRES   REMARKS
CUT BANK       SUNNY     81  38  21 W14G21    30.00F
GREAT FALLS    SUNNY     78  34  20 SW14      30.03F
MALMSTROM AFB  SUNNY     77  36  23 SW18      30.02F
HELENA         SUNNY     74  41  30 NE3       30.09F
AUGUSTA          N/A     76  34  21 W7        30.05F
BOWMANS CRNR     N/A     75  32  20 SW13G20   30.04F
CHOTEAU          N/A     79  36  21 CALM      30.04F
CONRAD           N/A     81  44  26 SW6       30.03S
FAIRFIELD        N/A     78  33  19 SW8       30.02F
POWER            N/A     76  36  22 SW12      30.02F
RAYNESFORD       N/A     76  34  21 W10       30.05F
ULM              N/A     77  32  19 W10G20    30.03F
$$

MTZ011-013-016-021-045-047-050-051-181800-
NORTH CENTRAL MONTANA

CITY           SKY/WX    TMP DP  RH WIND       PRES   REMARKS
HAVRE          SUNNY     79  39  23 SW17G23   29.95F
LEWISTOWN      SUNNY     76  37  24 W6        30.06F
N BAR RANCH      N/A     79  36  21 NW13      30.09S
CHINOOK          N/A     73  41  31 CALM      29.95F
DENTON           N/A     77  38  25 NW5       29.99F
JUDITH GAP       N/A     74  32  21 W5        30.08F
WINIFRED         N/A     75  37  25 N8        30.03F
$$

MTZ017>020-022>027-061-062-181800-
NORTHEAST MONTANA

CITY           SKY/WX    TMP DP  RH WIND       PRES   REMARKS
GLASGOW        SUNNY     75  45  34 S3        29.97F
JORDAN           N/A     82  37  20 NE5       29.98F
SIDNEY         SUNNY     75  57  53 SE3       29.98F
WOLF POINT     SUNNY     80  51  36 CALM      29.96F
MALTA          SUNNY     73  50  43 NE5       29.96F
PLENTYWOOD       N/A     73  45  35 CALM      29.98F
POPLAR           N/A     75  50  41 SE6       29.97F
SCOBEY           N/A     75  48  38 S5        29.97F
$$

MTZ028>42-056>058-181800-
SOUTHCENTRAL AND SOUTHEAST MONTANA

CITY           SKY/WX    TMP DP  RH WIND       PRES   REMARKS
BAKER          SUNNY     78  44  29 CALM      30.04F
BILLINGS       SUNNY     74  41  30 SW12      30.06F
LIVINGSTON     SUNNY     75  41  29 W9        30.13F
MILES CITY     MOSUNNY   75  40  28 SW6       30.01F
BIG TIMBER     SUNNY     77  39  25 W15G23    30.12F
EKALAKA          N/A     77  43  29 CALM      30.04S
LAUREL           N/A     77  38  24 SW9       30.05F
$$

REGIONAL REPORTS...DAKOTAS

CITY           SKY/WX    TMP DP  RH WIND       PRES   REMARKS
WILLISTON      SUNNY     75  54  47 CALM      29.98F
MINOT          SUNNY     77  54  44 W12       29.93S
DICKINSON      MOSUNNY   76  53  44 W8        30.00S
BEACH            N/A     77  45  31 N6        30.05S
CROSBY           N/A     75  46  35 NW8       29.97F
TIOGA            N/A     73  50  43 NW8       29.99F
WATFORD CITY     N/A     75  48  38 NW6       29.97F
BISMARCK       SUNNY     74  56  53 NW7       29.96F
GRAND FORKS    PTSUNNY   79  59  50 N8        29.84F
FARGO          CLOUDY    71  61  70 CALM      29.88S
BUFFALO SD       N/A     77  49  37 CALM      29.99S
RAPID CITY     SUNNY     78  47  33 N10       30.07R
$$

REGIONAL REPORTS...WYOMING/IDAHO/WASHINGTON

CITY           SKY/WX    TMP DP  RH WIND       PRES   REMARKS
GILLETTE       SUNNY     81  36  19 NE6       30.12F
SHERIDAN       SUNNY     82  39  21 E6        30.08F
BUFFALO WY     SUNNY     81  32  17 S8        30.16F
CODY           SUNNY     77  36  22 VRB3      30.15F
YELLOWSTONE LA   N/A     58  43  57 VRB5      30.38F
IDAHO FALLS    SUNNY     74  36  25 S17       30.20S
SALMON         SUNNY     65  39  38 CALM      30.18F
BOISE          SUNNY     76  44  32 W5        30.12R
SPOKANE        MOSUNNY   72  45  37 S9        30.06S
$$

REGIONAL REPORTS...ALBERTA

CITY           SKY/WX    TMP DP  RH WIND       PRES   REMARKS
EDMONTON       SUNNY     68  54  60 S6        29.77F
CALGARY        MOSUNNY   75  43  31 S9        29.88F
LETHBRIDGE     MOSUNNY   82  41  23 W18G25    29.90F
MEDICINE HAT   SUNNY     77  45  31 SW13      29.88F
$$

REGIONAL REPORTS...SASKATCHEWAN

CITY           SKY/WX    TMP DP  RH WIND       PRES   REMARKS
SWIFT CURRENT  SUNNY     75  46  35 S13       29.93F
REGINA         MOSUNNY   75  46  35 W9        29.93F
SASKATOON      SUNNY     73  52  46 SW6       29.91F
$$




USA.gov is the U.S. government's official web portal to all federal, state and local government web resources and services.